Starlink 2557

operational
NORAD ID: 48299 Int'l Des: 2021-036 Owner: SPXS Country: US Constellation: starlink
LEOCIRCULAR

About Starlink 2557

Description loading...

Live Position

Loading 3D Globe...

Upcoming Passes

Altitude History

Altitude vs Time

uPlot chart will show altitude changes over time

Two-Line Element Set

1 48299U 21036Z 26067.06834513 .00008824 00000-0 30970-3 0 9999
2 48299 53.1593 82.9038 0001176 100.0144 260.0989 15.30200422268161
Epoch: Mar 8, 2026 • Age: 17 hours

Current Status

Altitude 476.8 km
Velocity 7.63 km/s
Sub-Earth Point -3.23°S, 11.57°E
Launch Date Apr 29, 2021
Age 4.8 years
Type internet

Technical Details

Classification Payload
Mass 260.00 kg
Dry Mass 248.00 kg
Total Mass 260.00 kg
Length 0.20 m
Diameter 2.80 m
Span 9.00 m
Shape Box + pan
Manufacturer SPXS
Bus Type Starlink
Phase Status In Orbit
Owner/State SPXS/US

Large Constellations

Loading constellations...